User: anonymous   Login
Location: *
(58.7167°N, 26.1833°E)
Time: 07:34:47
(UTC+00:00)
Language:

Cosmos 405 Rocket - Orbit

View from above orbital plane
View from above orbital plane
View from above satellite
View from above satellite

Ground track
Ground track

The orbit data is extracted from the following two-line orbital elements,

1  5118U 71028B   19288.89245914 +.00000055 +00000-0 +15161-5 0  9992
2  5118 081.2535 258.2663 0046088 305.4032 054.2894 15.14402978632651
Epoch (UTC): 15 October 2019 21:25:08
Eccentricity: 0.0046088
inclination: 81.2535°
perigee height: 491 km
apogee height: 554 km
right ascension of ascending node: 258.2663°
argument of perigee: 305.4032°
revolutions per day: 15.14402978
mean anomaly at epoch: 54.2894°
orbit number at epoch: 63265

The dashed part of the orbit path shows where the satellite is in the earth's shadow,  

DLR